Change the Weather History Date:

Saturday, June 29, 2013

  Actual Average Record
Temperature  
Mean Temperature 69 °F -  
Max Temperature 81 °F 83 °F 101 °F (1952)
Min Temperature 59 °F 61 °F 48 °F (1938)
Cooling Degree Days 4    
Growing Degree Days 19 (Base 50)    
Moisture  
Dew Point 62 °F    
Average Humidity 84    
Maximum Humidity 96    
Minimum Humidity 57    
Precipitation  
Precipitation 1.04 in - - ()
Sea Level Pressure  
Sea Level Pressure 29.62 in    
Wind  
Wind Speed 3 mph (NW)    
Max Wind Speed 10 mph    
Max Gust Speed 17 mph    
Visibility 8 miles    
Events Fog , Rain , Thunderstorm    
Averages and records for this station are not official NWS values.
T = Trace of Precipitation, MM = Missing Value Source: NWS Daily Summary

Daily Weather History Graph

Daily Weather History Graph

Search for Another Location

Airport or City:

Trip Planner

Search our weather history database for the weather conditions in past years. The results will help you decide how hot, cold, wet, or windy it might be!

Date:

Astronomy

Jun. 29, 2013 Rise Set
Actual Time 6:03 AM EDT 9:02 PM EDT
Civil Twilight 5:31 AM EDT 9:35 PM EDT
Nautical Twilight 4:49 AM EDT 10:17 PM EDT
Astronomical Twilight 4:01 AM EDT 11:05 PM EDT
Moon 12:31 AM EDT (6/29) 1:14 PM EDT (6/29)
Length of Visible Light 16h 04m
Length of Day
14h 58m
Waning Gibbous, 56% of the Moon is Illuminated
Jun 29
Waning Gibbous
Jun 30
Last Quarter
Jul 8
New
Jul 15
First Quarter
Jul 22
Full

Hourly Weather History & Observations

Time (EDT) Temp. Dew Point Humidity Pressure Visibility Wind Dir Wind Speed Gust Speed Precip Events Conditions
12:54 AM 63.0 °F 60.1 °F 90% 29.59 in 10.0 mi Calm Calm - N/A   Clear
1:54 AM 62.1 °F 60.1 °F 93% 29.57 in 10.0 mi Calm Calm - N/A   Clear
2:54 AM 60.1 °F 59.0 °F 96% 29.57 in 9.0 mi Calm Calm - N/A   Clear
3:54 AM 61.0 °F 57.9 °F 90% 29.56 in 10.0 mi Calm Calm - N/A   Clear
4:54 AM 59.0 °F 57.9 °F 96% 29.57 in 7.0 mi Calm Calm - N/A   Mostly Cloudy
5:54 AM 60.1 °F 59.0 °F 96% 29.57 in 9.0 mi Calm Calm - 0.01 in   Partly Cloudy
6:54 AM 63.0 °F 61.0 °F 93% 29.58 in 8.0 mi SSW 3.5 mph - N/A   Clear
7:54 AM 64.0 °F 62.1 °F 93% 29.59 in 9.0 mi Calm Calm - N/A   Mostly Cloudy
8:54 AM 68.0 °F 62.1 °F 81% 29.60 in 10.0 mi SW 5.8 mph - N/A   Scattered Clouds
9:39 AM 69.8 °F 62.6 °F 78% 29.62 in 10.0 mi SSW 6.9 mph - N/A   Overcast
9:54 AM 70.0 °F 63.0 °F 78% 29.61 in 10.0 mi Calm Calm - N/A   Mostly Cloudy
10:54 AM 73.9 °F 64.0 °F 71% 29.59 in 10.0 mi Variable 3.5 mph - N/A   Scattered Clouds
11:04 AM 73.4 °F 62.6 °F 69% 29.61 in 10.0 mi SW 3.5 mph - N/A   Mostly Cloudy
11:37 AM 75.2 °F 64.4 °F 69% 29.61 in 10.0 mi Variable 5.8 mph - N/A   Mostly Cloudy
11:54 AM 73.9 °F 63.0 °F 68% 29.60 in 10.0 mi WSW 6.9 mph - N/A   Overcast
12:54 PM 77.0 °F 62.1 °F 60% 29.59 in 10.0 mi SW 5.8 mph - N/A   Overcast
1:54 PM 75.0 °F 62.1 °F 64% 29.58 in 10.0 mi WSW 5.8 mph - 0.00 in Rain Light Rain
2:04 PM 78.8 °F 62.6 °F 57% 29.59 in 10.0 mi WSW 4.6 mph - 0.00 in Thunderstorm Overcast
2:25 PM 77.0 °F 64.4 °F 65% 29.60 in 10.0 mi SW 4.6 mph - 0.00 in   Overcast
2:54 PM 78.1 °F 63.0 °F 60% 29.58 in 10.0 mi West 5.8 mph - 0.00 in Thunderstorm Overcast
3:54 PM 75.0 °F 66.0 °F 73% 29.60 in 10.0 mi NNW 6.9 mph - N/A Thunderstorm Thunderstorm
4:41 PM 78.8 °F 64.4 °F 61% 29.60 in 10.0 mi Calm Calm - N/A Thunderstorm Clear
4:54 PM 79.0 °F 64.0 °F 60% 29.58 in 10.0 mi Variable 3.5 mph - N/A Thunderstorm Clear
5:32 PM 71.6 °F 62.6 °F 73% 29.62 in 1.8 mi Variable 4.6 mph - 0.07 in Rain , Thunderstorm Light Thunderstorms and Rain
5:51 PM 66.2 °F 64.4 °F 94% 29.62 in 3.0 mi North 10.4 mph - 0.22 in Rain , Thunderstorm Light Thunderstorms and Rain
5:54 PM 68.0 °F 64.0 °F 87% 29.61 in 5.0 mi North 8.1 mph - 0.22 in Rain , Thunderstorm Light Thunderstorms and Rain
6:03 PM 66.2 °F 62.6 °F 88% 29.63 in 1.5 mi North 9.2 mph - 0.17 in Rain , Thunderstorm Heavy Thunderstorms and Rain
6:18 PM 66.2 °F 62.6 °F 88% 29.63 in 3.0 mi Variable 3.5 mph 17.3 mph 0.31 in Rain , Thunderstorm Light Thunderstorms and Rain
6:41 PM 64.4 °F 62.6 °F 94% 29.63 in 1.8 mi WNW 4.6 mph - 0.39 in Rain Rain
6:54 PM 64.0 °F 63.0 °F 96% 29.63 in 0.5 mi NW 3.5 mph - 0.64 in Fog , Rain Heavy Rain
7:07 PM 64.4 °F 62.6 °F 94% 29.65 in 2.0 mi ENE 4.6 mph - 0.14 in Rain Light Rain
7:15 PM 64.4 °F 62.6 °F 94% 29.66 in 7.0 mi North 6.9 mph - 0.15 in Rain Light Rain
7:23 PM 64.4 °F 62.6 °F 94% 29.66 in 7.0 mi North 5.8 mph - 0.15 in Rain , Thunderstorm Light Rain
7:54 PM 64.9 °F 63.0 °F 93% 29.66 in 10.0 mi North 4.6 mph - 0.17 in Thunderstorm Mostly Cloudy
8:09 PM 66.2 °F 62.6 °F 88% 29.67 in 10.0 mi East 5.8 mph - N/A   Mostly Cloudy
8:54 PM 66.0 °F 63.0 °F 90% 29.65 in 10.0 mi ENE 3.5 mph - N/A   Partly Cloudy
9:54 PM 64.9 °F 63.0 °F 93% 29.65 in 8.0 mi Calm Calm - N/A   Clear
10:11 PM 64.4 °F 62.6 °F 94% 29.67 in 2.5 mi Calm Calm - N/A   Clear
10:22 PM 64.4 °F 62.6 °F 94% 29.68 in 4.0 mi NNE 3.5 mph - N/A   Scattered Clouds
10:31 PM 64.4 °F 62.6 °F 94% 29.68 in 7.0 mi NNE 3.5 mph - N/A   Mostly Cloudy
10:54 PM 64.0 °F 63.0 °F 96% 29.68 in 10.0 mi Variable 3.5 mph - N/A   Mostly Cloudy
11:06 PM 64.4 °F 62.6 °F 94% 29.70 in 9.0 mi Calm Calm - N/A   Scattered Clouds
11:54 PM 64.0 °F 63.0 °F 96% 29.69 in 7.0 mi Calm Calm - N/A   Overcast